NORTHEAST SUFFOLK  -  Air Quality Alert Air Quality Alert        NORTHERN NASSAU  -  Air Quality Alert Air Quality Alert        NORTHERN QUEENS  -  Air Quality Alert Air Quality Alert        NORTHWEST SUFFOLK  -  Air Quality Alert Air Quality Alert        SOUTHEAST SUFFOLK  -  Air Quality Alert Air Quality Alert        SOUTHERN NASSAU  -  Air Quality Alert Air Quality Alert        SOUTHERN QUEENS  -  Air Quality Alert Air Quality Alert        SOUTHWEST SUFFOLK  -  Air Quality Alert Air Quality Alert      

Active alerts

Northern Queens
  Details for Northern Queens Air Quality Alert
Southern Queens
  Details for Southern Queens Air Quality Alert
Northern Nassau
  Details for Northern Nassau Air Quality Alert
Southern Nassau
  Details for Southern Nassau Air Quality Alert
Northwest Suffolk
  Details for Northwest Suffolk Air Quality Alert
Southwest Suffolk
  Details for Southwest Suffolk Air Quality Alert
Northeast Suffolk
  Details for Northeast Suffolk Air Quality Alert
Southeast Suffolk
  Details for Southeast Suffolk Air Quality Alert


WXM80 ListenWXM80 Stop

You find our weather info also at:

UK Metoffice

WeatherCloud

Weather Underground

Northeastern Weather Network

AWEKAS

Citizen Weather Observer Program (CWOP)

HAMweather, WeatherForYou, PWS Weather


Weather Underground History page Text

Daily Summary for October 18, 2017 Units:  Metric    English   Both
« Previous Day
Next Day »
Daily Weekly Monthly Yearly Custom
  High: Low: Average:
Temperature: 22.9 °C 7.6 °C 14.7 °C
Dew Point: 12.7 °C 4.9 °C 9.1 °C
Humidity: 85 % 48 % 71 %
Wind Speed: 7.4 km/h 0 km/h 1.9 km/h
Wind Gust: 13 km/h - -
Wind:- - WSW
Pressure: 1026.6 hPa 1017.2 hPa -
Precipitation: 0 mm    
Historical Graphs
 
 
Tabular Data for October 18, 2017
Time Temperature Dew Point Pressure Wind Wind Speed Wind Gust Humidity Rainfall Rate (Hourly)
00:01 10.1 °C 6.3 °C 1025.3 hPa SW 3.1 km/h 6.4 km/h 77 % 0 mm
00:06 10.1 °C 6.3 °C 1025.3 hPa WSW 1.8 km/h 3.7 km/h 77 % 0 mm
00:11 10.1 °C 6.1 °C 1025.3 hPa SW 4.5 km/h 9.3 km/h 76 % 0 mm
00:16 10.1 °C 6.1 °C 1025.3 hPa SSW 0.6 km/h 3.7 km/h 76 % 0 mm
00:21 10.1 °C 6.1 °C 1025.3 hPa SSW 2.7 km/h 7.4 km/h 76 % 0 mm
00:26 10.1 °C 6.1 °C 1025.3 hPa West 2.9 km/h 7.4 km/h 76 % 0 mm
00:31 10.1 °C 6.1 °C 1025.3 hPa South 1 km/h 3.2 km/h 76 % 0 mm
00:36 10.1 °C 6.1 °C 1025.3 hPa WSW 0.3 km/h 5.6 km/h 76 % 0 mm
00:41 10.1 °C 6.1 °C 1024.9 hPa SSW 0.3 km/h 3.7 km/h 76 % 0 mm
00:46 10.1 °C 6.1 °C 1024.9 hPa SSW 0.3 km/h 1.9 km/h 76 % 0 mm
00:51 10.1 °C 6 °C 1024.9 hPa Calm     76 % 0 mm
00:56 10 °C 5.9 °C 1024.9 hPa Calm     76 % 0 mm
01:01 9.9 °C 5.9 °C 1024.9 hPa Calm     76 % 0 mm
01:07 9.9 °C 6.1 °C 1024.9 hPa Calm     77 % 0 mm
01:12 9.8 °C 6 °C 1024.9 hPa Calm     77 % 0 mm
01:17 9.7 °C 5.9 °C 1024.9 hPa Calm     77 % 0 mm
01:22 9.7 °C 6 °C 1025.3 hPa SSW 0.2 km/h 1.9 km/h 78 % 0 mm
01:27 9.6 °C 5.9 °C 1024.9 hPa Calm     78 % 0 mm
01:32 9.4 °C 5.8 °C 1024.9 hPa Calm     78 % 0 mm
01:37 9.3 °C 5.7 °C 1024.9 hPa Calm   1.6 km/h 78 % 0 mm
01:42 9.2 °C 5.6 °C 1024.9 hPa SW 0.5 km/h 1.9 km/h 78 % 0 mm
01:47 9.1 °C 5.5 °C 1025.3 hPa Calm     78 % 0 mm
01:52 9.1 °C 5.4 °C 1025.3 hPa Calm     78 % 0 mm
01:57 9 °C 5.4 °C 1025.3 hPa SW 3.4 km/h 9.3 km/h 78 % 0 mm
02:02 9 °C 5.4 °C 1025.3 hPa WSW 1.9 km/h 5.6 km/h 78 % 0 mm
02:07 9 °C 5.4 °C 1025.3 hPa WSW 4.5 km/h 7.4 km/h 78 % 0 mm
02:12 9 °C 5.2 °C 1024.9 hPa West 4.5 km/h 11.1 km/h 77 % 0 mm
02:17 9.1 °C 5.1 °C 1025.3 hPa West 1.9 km/h 5.6 km/h 76 % 0 mm
02:22 9.2 °C 5.2 °C 1024.9 hPa WSW 3.5 km/h 9.7 km/h 76 % 0 mm
02:27 9.3 °C 5.1 °C 1024.9 hPa WSW 2.4 km/h 5.6 km/h 75 % 0 mm
02:32 9.3 °C 5.1 °C 1024.9 hPa WSW 1.1 km/h 3.7 km/h 75 % 0 mm
02:37 9.4 °C 5.2 °C 1024.9 hPa SSW 2.6 km/h 7.4 km/h 75 % 0 mm
02:42 9.4 °C 5.1 °C 1024.9 hPa West 1.6 km/h 9.3 km/h 74 % 0 mm
02:47 9.6 °C 5.2 °C 1024.9 hPa SSW 2.4 km/h 6.4 km/h 74 % 0 mm
02:52 9.6 °C 5.2 °C 1024.6 hPa West 1.3 km/h 5.6 km/h 74 % 0 mm
02:58 9.7 °C 5.3 °C 1024.6 hPa WSW 1.9 km/h 7.4 km/h 74 % 0 mm
03:03 9.7 °C 5.3 °C 1024.6 hPa WSW 2.3 km/h 5.6 km/h 74 % 0 mm
03:08 9.7 °C 5.1 °C 1024.6 hPa SW 5 km/h 9.3 km/h 73 % 0 mm
03:13 9.7 °C 5.1 °C 1024.3 hPa SW 4.2 km/h 5.6 km/h 73 % 0 mm
03:18 9.8 °C 5.2 °C 1024.3 hPa WSW 1 km/h 9.3 km/h 73 % 0 mm
03:23 9.8 °C 5.2 °C 1024.6 hPa WSW 1.3 km/h 7.4 km/h 73 % 0 mm
03:28 9.8 °C 5.2 °C 1024.3 hPa WSW 2.6 km/h 5.6 km/h 73 % 0 mm
03:33 9.8 °C 4.9 °C 1024.3 hPa WSW 3.7 km/h 7.4 km/h 72 % 0 mm
03:38 9.7 °C 4.9 °C 1023.9 hPa SSW 6.1 km/h 9.7 km/h 72 % 0 mm
03:43 9.8 °C 4.9 °C 1023.9 hPa SW 4 km/h 11.1 km/h 72 % 0 mm
03:48 9.8 °C 4.9 °C 1024.3 hPa SW 2.9 km/h 5.6 km/h 72 % 0 mm
03:53 9.8 °C 5.2 °C 1023.9 hPa SSW 2.9 km/h 5.6 km/h 73 % 0 mm
03:58 9.8 °C 5.4 °C 1023.9 hPa West 0.2 km/h 5.6 km/h 74 % 0 mm
04:03 9.8 °C 5.4 °C 1024.3 hPa West 1 km/h 3.2 km/h 74 % 0 mm
04:08 9.7 °C 5.3 °C 1024.3 hPa West 0.5 km/h 1.9 km/h 74 % 0 mm
04:13 9.7 °C 5.3 °C 1024.3 hPa SW 1.6 km/h 5.6 km/h 74 % 0 mm
04:18 9.7 °C 5.3 °C 1024.3 hPa Calm   1.9 km/h 74 % 0 mm
04:23 9.7 °C 5.4 °C 1023.9 hPa SW 0.5 km/h 3.7 km/h 75 % 0 mm
04:28 9.6 °C 5.6 °C 1023.9 hPa SW 3.1 km/h 5.6 km/h 76 % 0 mm
04:33 9.6 °C 5.6 °C 1024.3 hPa Calm     76 % 0 mm
04:38 9.5 °C 5.5 °C 1024.3 hPa Calm     76 % 0 mm
04:43 9.4 °C 5.4 °C 1024.3 hPa Calm     76 % 0 mm
04:48 9.4 °C 5.2 °C 1024.6 hPa Calm     75 % 0 mm
04:53 9.3 °C 5.3 °C 1024.6 hPa Calm     76 % 0 mm
04:58 9.2 °C 5.2 °C 1024.6 hPa Calm     76 % 0 mm
05:03 9.2 °C 5.2 °C 1024.6 hPa Calm     76 % 0 mm
05:09 9.1 °C 5.1 °C 1024.6 hPa Calm     76 % 0 mm
05:14 9.1 °C 5.1 °C 1024.6 hPa Calm     76 % 0 mm
05:19 8.9 °C 5.1 °C 1024.9 hPa Calm     77 % 0 mm
05:24 8.9 °C 5.1 °C 1024.9 hPa SW 1.8 km/h 3.7 km/h 77 % 0 mm
05:29 8.8 °C 5 °C 1024.9 hPa WSW 0.3 km/h 1.9 km/h 77 % 0 mm
05:34 8.8 °C 5.2 °C 1024.9 hPa Calm   1.9 km/h 78 % 0 mm
05:39 8.7 °C 5.1 °C 1024.9 hPa Calm     78 % 0 mm
05:44 8.7 °C 5.1 °C 1024.9 hPa Calm     78 % 0 mm
05:49 8.6 °C 5.2 °C 1024.9 hPa Calm     79 % 0 mm
05:54 8.6 °C 5.1 °C 1024.9 hPa West 1.4 km/h 3.7 km/h 79 % 0 mm
05:59 8.5 °C 5.1 °C 1024.9 hPa Calm     79 % 0 mm
06:00 8.5 °C 5.1 °C 1024.9 hPa Calm   1.9 km/h 79 % 0 mm
06:05 8.4 °C 5.2 °C 1025.3 hPa West 0.5 km/h 3.7 km/h 80 % 0 mm
06:10 8.4 °C 5.3 °C 1025.3 hPa Calm     81 % 0 mm
06:15 8.3 °C 5.2 °C 1025.3 hPa Calm     81 % 0 mm
06:20 8.2 °C 5.1 °C 1025.3 hPa West 0.6 km/h 1.9 km/h 81 % 0 mm
06:25 8.1 °C 5.2 °C 1025.3 hPa West 0.6 km/h 1.9 km/h 82 % 0 mm
06:30 8 °C 5.1 °C 1025.3 hPa West 0.2 km/h 1.9 km/h 82 % 0 mm
06:35 7.9 °C 5.1 °C 1025.3 hPa Calm   1.9 km/h 82 % 0 mm
06:40 7.8 °C 5.1 °C 1024.9 hPa West 2.3 km/h 4.8 km/h 83 % 0 mm
06:45 7.7 °C 5.2 °C 1025.3 hPa West 1.6 km/h 3.7 km/h 84 % 0 mm
06:50 7.6 °C 5.1 °C 1024.9 hPa SW 1.1 km/h 3.7 km/h 84 % 0 mm
06:56 7.6 °C 5.1 °C 1024.9 hPa WSW 3.2 km/h 9.7 km/h 84 % 0 mm
07:01 7.6 °C 5.1 °C 1024.9 hPa WSW 2.1 km/h 5.6 km/h 84 % 0 mm
07:06 7.7 °C 5.1 °C 1024.9 hPa West 1.4 km/h 5.6 km/h 84 % 0 mm
07:11 7.8 °C 5.2 °C 1025.3 hPa West 3.2 km/h 8 km/h 84 % 0 mm
07:16 7.9 °C 5.3 °C 1025.3 hPa WSW 3.4 km/h 7.4 km/h 84 % 0 mm
07:18 7.9 °C 5.4 °C 1025.3 hPa WSW 4.8 km/h 5.6 km/h 84 % 0 mm
07:22 8.1 °C 5.3 °C 1025.3 hPa SW 4 km/h 7.4 km/h 83 % 0 mm
07:28 8.2 °C 5.5 °C 1025.3 hPa SW 4.7 km/h 5.6 km/h 83 % 0 mm
07:33 8.4 °C 5.5 °C 1025.6 hPa WSW 3.7 km/h 11.1 km/h 82 % 0 mm
07:38 8.6 °C 5.7 °C 1025.6 hPa WSW 3.4 km/h 7.4 km/h 82 % 0 mm
07:43 8.7 °C 5.7 °C 1025.6 hPa SW 3.5 km/h 11.1 km/h 81 % 0 mm
07:48 8.9 °C 5.8 °C 1025.6 hPa SW 5 km/h 9.3 km/h 81 % 0 mm
07:53 9 °C 5.7 °C 1025.6 hPa WSW 6.4 km/h 9.3 km/h 80 % 0 mm
07:58 9.2 °C 5.9 °C 1025.6 hPa SSW 3.7 km/h 5.6 km/h 80 % 0 mm
08:03 9.3 °C 6 °C 1025.6 hPa SW 2.4 km/h 8 km/h 80 % 0 mm
08:08 9.4 °C 5.9 °C 1026 hPa Calm     79 % 0 mm
08:13 9.6 °C 5.9 °C 1026.3 hPa Calm     78 % 0 mm
08:18 9.7 °C 6.2 °C 1026 hPa SW 2.9 km/h 5.6 km/h 79 % 0 mm
08:23 9.8 °C 6.3 °C 1026 hPa SW 2.9 km/h 5.6 km/h 79 % 0 mm
08:28 9.9 °C 6.4 °C 1026 hPa SW 4.8 km/h 9.7 km/h 79 % 0 mm
08:33 10 °C 6.5 °C 1026 hPa SSW 5.6 km/h 7.4 km/h 79 % 0 mm
08:38 10.1 °C 6.4 °C 1026 hPa SSW 3.4 km/h 5.6 km/h 78 % 0 mm
08:43 10.2 °C 6.7 °C 1026 hPa WSW 6.1 km/h 8 km/h 79 % 0 mm
08:48 10.4 °C 6.7 °C 1026 hPa SW 4.2 km/h 6.4 km/h 78 % 0 mm
08:53 10.5 °C 6.8 °C 1026 hPa SSW 5.1 km/h 7.4 km/h 78 % 0 mm
08:58 10.7 °C 6.8 °C 1026 hPa WSW 5.3 km/h 7.4 km/h 77 % 0 mm
09:03 10.8 °C 6.9 °C 1026 hPa WSW 7.2 km/h 9.7 km/h 77 % 0 mm
09:08 11 °C 6.9 °C 1026.3 hPa West 2.7 km/h 5.6 km/h 76 % 0 mm
09:09 11 °C 6.9 °C 1026.3 hPa West 2.9 km/h 6.4 km/h 76 % 0 mm
09:14 11.2 °C 7.3 °C 1026.3 hPa WSW 1.8 km/h 7.4 km/h 77 % 0 mm
09:19 11.4 °C 7.5 °C 1026 hPa WNW 6.3 km/h 9.3 km/h 77 % 0 mm
09:24 11.6 °C 7.7 °C 1026 hPa West 5.6 km/h 11.3 km/h 77 % 0 mm
09:29 11.8 °C 8.1 °C 1026 hPa SW 7.1 km/h 9.3 km/h 78 % 0 mm
09:34 11.9 °C 8.2 °C 1026 hPa WNW 2.6 km/h 5.6 km/h 78 % 0 mm
09:39 12.2 °C 8.4 °C 1026.3 hPa WSW 3.5 km/h 5.6 km/h 78 % 0 mm
09:44 12.4 °C 8.4 °C 1026.3 hPa WNW 5.8 km/h 11.1 km/h 77 % 0 mm
09:49 12.6 °C 8.7 °C 1026.3 hPa West 6.4 km/h 8 km/h 77 % 0 mm
09:54 12.8 °C 8.7 °C 1026.3 hPa SSW 7.4 km/h 9.3 km/h 76 % 0 mm
09:59 13.2 °C 9 °C 1026 hPa West 4.7 km/h 6.4 km/h 76 % 0 mm
10:04 13.4 °C 9.3 °C 1026 hPa WSW 2.4 km/h 5.6 km/h 76 % 0 mm
10:09 13.8 °C 9.4 °C 1026 hPa SW 5.6 km/h 11.3 km/h 75 % 0 mm
10:14 14.1 °C 9.3 °C 1026 hPa WNW 3.4 km/h 7.4 km/h 73 % 0 mm
10:19 14.3 °C 9.7 °C 1026 hPa WNW 0.8 km/h 3.7 km/h 74 % 0 mm
10:24 14.5 °C 9.7 °C 1026 hPa WNW 0.2 km/h 1.9 km/h 73 % 0 mm
10:29 14.7 °C 9.9 °C 1026 hPa West 5.3 km/h 6.4 km/h 73 % 0 mm
10:34 14.8 °C 9.8 °C 1026 hPa West 2.3 km/h 11.1 km/h 72 % 0 mm
10:39 14.9 °C 9.9 °C 1026 hPa WSW 0.8 km/h 5.6 km/h 72 % 0 mm
10:44 15.1 °C 10.1 °C 1026 hPa WNW 2.1 km/h 5.6 km/h 72 % 0 mm
10:50 15.2 °C 9.9 °C 1026 hPa NW 3.2 km/h 5.6 km/h 71 % 0 mm
10:55 15.3 °C 9.8 °C 1026 hPa WNW 4.7 km/h 13 km/h 70 % 0 mm
11:00 15.4 °C 9.7 °C 1026 hPa WNW 0.5 km/h 4.8 km/h 69 % 0 mm
11:05 15.5 °C 10.1 °C 1026 hPa WSW 6.3 km/h 9.3 km/h 70 % 0 mm
11:10 15.7 °C 10 °C 1026 hPa West 6 km/h 9.3 km/h 69 % 0 mm
11:15 15.9 °C 10.2 °C 1026 hPa WNW 1.9 km/h 5.6 km/h 69 % 0 mm
11:20 16.2 °C 10.1 °C 1026 hPa SW 3.7 km/h 5.6 km/h 67 % 0 mm
11:25 16.7 °C 10.9 °C 1026 hPa SSW 4.7 km/h 11.3 km/h 69 % 0 mm
11:30 17.2 °C 11.3 °C 1026 hPa WSW 1.9 km/h 7.4 km/h 68 % 0 mm
11:35 17.7 °C 11.3 °C 1026 hPa NNW 1.8 km/h 5.6 km/h 66 % 0 mm
11:40 18.3 °C 11.6 °C 1026.3 hPa WNW 2.4 km/h 4.8 km/h 65 % 0 mm
11:45 18.8 °C 11.8 °C 1026.3 hPa Calm   3.7 km/h 64 % 0 mm
11:50 19.3 °C 11.4 °C 1026.3 hPa WNW 2.7 km/h 5.6 km/h 60 % 0 mm
11:55 19.8 °C 12.1 °C 1026.3 hPa WNW 0.5 km/h 1.9 km/h 61 % 0 mm
12:00 20.1 °C 11.3 °C 1026.3 hPa WNW 5.8 km/h 8 km/h 57 % 0 mm
12:05 20.3 °C 11.5 °C 1026 hPa NW 4.7 km/h 5.6 km/h 57 % 0 mm
12:10 20.4 °C 12.4 °C 1026 hPa NW 0.2 km/h 1.9 km/h 60 % 0 mm
12:16 20.7 °C 11.6 °C 1026 hPa Calm   3.2 km/h 56 % 0 mm
12:20 20.8 °C 11.4 °C 1026 hPa Calm   4.8 km/h 55 % 0 mm
12:25 20.9 °C 10.9 °C 1026 hPa West 3.5 km/h 5.6 km/h 53 % 0 mm
12:30 20.9 °C 11.3 °C 1026 hPa West 1.6 km/h 6.4 km/h 54 % 0 mm
12:35 20.9 °C 11 °C 1026 hPa West 1.6 km/h 4.8 km/h 53 % 0 mm
12:41 20.9 °C 12.1 °C 1026 hPa Calm   3.2 km/h 57 % 0 mm
12:45 21 °C 11.9 °C 1025.6 hPa Calm   4.8 km/h 56 % 0 mm
12:51 21.1 °C 10.6 °C 1025.6 hPa WNW 1.6 km/h 9.7 km/h 51 % 0 mm
12:55 21.2 °C 10.9 °C 1025.6 hPa Calm   6.4 km/h 52 % 0 mm
13:01 21.3 °C 11 °C 1026.6 hPa WSW 4.2 km/h 5.6 km/h 52 % 0 mm
13:06 21.4 °C 10.6 °C 1026 hPa West 5.3 km/h 11.1 km/h 50 % 0 mm
13:11 21.5 °C 11.8 °C 1025.3 hPa NW 1.1 km/h 5.6 km/h 54 % 0 mm
13:16 21.6 °C 11.9 °C 1025.3 hPa NW 2.3 km/h 5.6 km/h 54 % 0 mm
13:21 21.7 °C 11.4 °C 1024.9 hPa West 3.2 km/h 5.6 km/h 52 % 0 mm
13:26 21.7 °C 11.4 °C 1024.9 hPa WNW 2.4 km/h 5.6 km/h 52 % 0 mm
13:31 21.8 °C 12.1 °C 1024.9 hPa WNW 0.3 km/h 5.6 km/h 54 % 0 mm
13:36 21.8 °C 12.4 °C 1024.9 hPa WSW 3.5 km/h 5.6 km/h 55 % 0 mm
13:41 21.8 °C 10.6 °C 1024.9 hPa WNW 2.3 km/h 5.6 km/h 49 % 0 mm
13:46 21.9 °C 11.1 °C 1024.9 hPa WNW 4.3 km/h 8 km/h 50 % 0 mm
13:51 22 °C 11.1 °C 1024.6 hPa WSW 4.3 km/h 6.4 km/h 50 % 0 mm
13:56 22.1 °C 11.2 °C 1024.6 hPa West 1.9 km/h 6.4 km/h 50 % 0 mm
14:01 22.1 °C 10.6 °C 1024.6 hPa WNW 4.5 km/h 9.3 km/h 48 % 0 mm
14:06 22.2 °C 10.6 °C 1024.6 hPa WNW 2.4 km/h 5.6 km/h 48 % 0 mm
14:11 22.2 °C 11.2 °C 1024.6 hPa NW 3.4 km/h 9.3 km/h 50 % 0 mm
14:16 22.2 °C 11.3 °C 1024.6 hPa WNW 2.7 km/h 5.6 km/h 50 % 0 mm
14:21 22.3 °C 11.1 °C 1024.6 hPa WNW 2.7 km/h 5.6 km/h 49 % 0 mm
14:26 22.3 °C 11.1 °C 1024.6 hPa Calm     49 % 0 mm
14:31 22.4 °C 11.5 °C 1024.3 hPa SSW 4.8 km/h 6.4 km/h 50 % 0 mm
14:36 22.5 °C 11.6 °C 1024.3 hPa WSW 4.3 km/h 5.6 km/h 50 % 0 mm
14:41 22.6 °C 11.9 °C 1024.3 hPa WSW 2.3 km/h 5.6 km/h 51 % 0 mm
14:46 22.7 °C 11.7 °C 1024.3 hPa West 1.4 km/h 3.7 km/h 50 % 0 mm
14:51 22.8 °C 11.2 °C 1025.3 hPa WSW 4.7 km/h 8 km/h 48 % 0 mm
14:56 22.8 °C 11.6 °C 1024.3 hPa West 3.9 km/h 5.6 km/h 49 % 0 mm
15:01 22.9 °C 11.3 °C 1024.3 hPa WNW 2.3 km/h 5.6 km/h 48 % 0 mm
15:06 22.9 °C 11.3 °C 1024.3 hPa WNW 2.1 km/h 5.6 km/h 48 % 0 mm
15:11 22.9 °C 11.6 °C 1024.3 hPa WNW 2.6 km/h 5.6 km/h 49 % 0 mm
15:16 22.9 °C 11.6 °C 1024.3 hPa WNW 1 km/h 3.7 km/h 49 % 0 mm
15:21 22.8 °C 11.5 °C 1024.3 hPa WNW 1.1 km/h 3.7 km/h 49 % 0 mm
15:26 22.7 °C 11.7 °C 1024.3 hPa Calm   1.9 km/h 50 % 0 mm
15:31 22.6 °C 11.3 °C 1023.9 hPa West 0.2 km/h 1.6 km/h 49 % 0 mm
15:36 22.4 °C 11.5 °C 1023.9 hPa WNW 0.5 km/h 5.6 km/h 50 % 0 mm
15:41 22.3 °C 11.4 °C 1023.9 hPa WNW 2.9 km/h 5.6 km/h 50 % 0 mm
15:46 22.2 °C 11.3 °C 1023.9 hPa WNW 1 km/h 4.8 km/h 50 % 0 mm
15:51 22.1 °C 11.4 °C 1023.9 hPa Calm     51 % 0 mm
15:56 22 °C 11.1 °C 1023.9 hPa WSW 1.1 km/h 3.7 km/h 50 % 0 mm
16:01 21.9 °C 11.3 °C 1023.9 hPa Calm   1.9 km/h 51 % 0 mm
16:07 21.8 °C 11.2 °C 1023.9 hPa SSW 1.9 km/h 5.6 km/h 51 % 0 mm
16:12 21.7 °C 11.4 °C 1023.9 hPa WSW 4.5 km/h 5.6 km/h 52 % 0 mm
16:17 21.6 °C 11.6 °C 1023.6 hPa WSW 0.2 km/h 1.9 km/h 53 % 0 mm
16:22 21.5 °C 11.2 °C 1023.9 hPa West 0.6 km/h 3.7 km/h 52 % 0 mm
16:28 21.4 °C 11.4 °C 1023.6 hPa West 2.9 km/h 5.6 km/h 53 % 0 mm
16:33 21.4 °C 11.4 °C 1023.6 hPa West 0.5 km/h 3.7 km/h 53 % 0 mm
16:38 21.3 °C 11.3 °C 1023.6 hPa West 1.3 km/h 3.7 km/h 53 % 0 mm
16:43 21.2 °C 11.3 °C 1023.6 hPa West 0.5 km/h 1.9 km/h 53 % 0 mm
16:48 21.2 °C 11.2 °C 1023.6 hPa Calm     53 % 0 mm
16:53 21.1 °C 11.2 °C 1023.6 hPa West 2.3 km/h 3.7 km/h 53 % 0 mm
16:58 21.1 °C 11.4 °C 1023.6 hPa WSW 1.8 km/h 5.6 km/h 54 % 0 mm
17:03 20.9 °C 11.6 °C 1023.6 hPa Calm     55 % 0 mm
17:08 20.9 °C 11.8 °C 1023.6 hPa Calm     56 % 0 mm
17:13 20.8 °C 11.7 °C 1024.6 hPa Calm     56 % 0 mm
17:18 20.8 °C 12.2 °C 1023.9 hPa SE 2.7 km/h 8 km/h 58 % 0 mm
17:23 20.6 °C 12.1 °C 1023.9 hPa SE 0.6 km/h   58 % 0 mm
17:29 20.5 °C 12.2 °C 1023.9 hPa Calm   1.9 km/h 59 % 0 mm
17:34 20.4 °C 12.1 °C 1023.9 hPa Calm     59 % 0 mm
17:39 20.2 °C 11.9 °C 1023.9 hPa Calm   1.9 km/h 59 % 0 mm
17:44 20.1 °C 11.8 °C 1023.9 hPa Calm   1.9 km/h 59 % 0 mm
17:49 19.9 °C 11.9 °C 1023.9 hPa Calm     60 % 0 mm
17:54 19.8 °C 11.8 °C 1023.9 hPa Calm     60 % 0 mm
17:59 19.6 °C 11.9 °C 1023.9 hPa Calm   1.9 km/h 61 % 0 mm
18:04 19.4 °C 11.7 °C 1024.3 hPa Calm     61 % 0 mm
18:09 19.2 °C 11.5 °C 1024.3 hPa Calm     61 % 0 mm
18:14 19 °C 11.6 °C 1024.3 hPa Calm     62 % 0 mm
18:19 18.8 °C 11.4 °C 1024.3 hPa SE 0.2 km/h 1.9 km/h 62 % 0 mm
18:24 18.6 °C 11.4 °C 1024.3 hPa Calm   1.9 km/h 63 % 0 mm
18:29 18.4 °C 11.5 °C 1024.3 hPa SE 0.3 km/h 1.9 km/h 64 % 0 mm
18:34 18.2 °C 11.3 °C 1024.3 hPa SE 0.5 km/h 1.9 km/h 64 % 0 mm
18:39 18 °C 11.3 °C 1024.3 hPa SE 0.8 km/h 1.9 km/h 65 % 0 mm
18:44 17.8 °C 11.4 °C 1024.6 hPa SE 0.5 km/h 1.9 km/h 66 % 0 mm
18:49 17.6 °C 11.2 °C 1024.6 hPa Calm   1.9 km/h 66 % 0 mm
18:54 17.4 °C 11.2 °C 1024.6 hPa SW 0.3 km/h 1.9 km/h 67 % 0 mm
18:59 17.3 °C 11.3 °C 1024.6 hPa WSW 1.4 km/h 3.7 km/h 68 % 0 mm
19:05 17.1 °C 11.4 °C 1024.6 hPa WSW 1.9 km/h 5.6 km/h 69 % 0 mm
19:10 17 °C 11.5 °C 1024.6 hPa WSW 1.3 km/h 5.6 km/h 70 % 0 mm
19:14 16.8 °C 11.6 °C 1024.6 hPa WSW 0.3 km/h 1.9 km/h 71 % 0 mm
19:20 16.7 °C 11.7 °C 1024.6 hPa WSW 1.1 km/h 3.7 km/h 72 % 0 mm
19:25 16.6 °C 11.6 °C 1024.6 hPa WSW 1.1 km/h 3.7 km/h 72 % 0 mm
19:26 16.6 °C 11.7 °C 1024.6 hPa WSW 1.3 km/h 3.2 km/h 73 % 0 mm
19:31 16.5 °C 11.7 °C 1024.6 hPa WSW 0.8 km/h 3.7 km/h 73 % 0 mm
19:36 16.4 °C 11.7 °C 1024.6 hPa WSW 0.6 km/h 5.6 km/h 74 % 0 mm
19:41 16.3 °C 11.8 °C 1024.6 hPa WSW 0.8 km/h 1.9 km/h 75 % 0 mm
19:46 16.2 °C 11.8 °C 1024.6 hPa WSW 2.9 km/h 3.7 km/h 75 % 0 mm
19:51 16.2 °C 11.7 °C 1024.6 hPa WSW 1.8 km/h 3.7 km/h 75 % 0 mm
19:56 16.1 °C 11.7 °C 1024.6 hPa WSW 1 km/h 5.6 km/h 75 % 0 mm
20:01 16.1 °C 11.8 °C 1024.6 hPa Calm     76 % 0 mm
20:06 16 °C 11.9 °C 1024.6 hPa WSW 0.8 km/h 3.7 km/h 77 % 0 mm
20:12 15.9 °C 11.9 °C 1024.6 hPa WSW 1.3 km/h 5.6 km/h 77 % 0 mm
20:17 15.9 °C 11.8 °C 1024.6 hPa WSW 1.4 km/h 3.7 km/h 77 % 0 mm
20:22 15.8 °C 11.8 °C 1024.6 hPa SW 0.8 km/h 5.6 km/h 77 % 0 mm
20:27 15.8 °C 11.9 °C 1024.6 hPa SSW 1.1 km/h 3.7 km/h 78 % 0 mm
20:32 15.7 °C 12.1 °C 1024.9 hPa SW 1.6 km/h 3.7 km/h 79 % 0 mm
20:37 15.7 °C 12.1 °C 1024.9 hPa SW 1.8 km/h 5.6 km/h 79 % 0 mm
20:42 15.7 °C 12.1 °C 1024.9 hPa SW 1.3 km/h 4.8 km/h 79 % 0 mm
20:47 15.7 °C 12.2 °C 1024.9 hPa SW 0.8 km/h 9.3 km/h 80 % 0 mm
20:52 15.7 °C 12.2 °C 1024.9 hPa WSW 2.1 km/h 5.6 km/h 80 % 0 mm
20:57 15.7 °C 12.2 °C 1024.9 hPa WSW 1.3 km/h 1.9 km/h 80 % 0 mm
21:02 15.6 °C 12.3 °C 1024.9 hPa SW 0.2 km/h 5.6 km/h 81 % 0 mm
21:07 15.6 °C 12.3 °C 1024.9 hPa WSW 0.5 km/h 1.9 km/h 81 % 0 mm
21:12 15.6 °C 12.3 °C 1024.9 hPa WSW 1.4 km/h 3.7 km/h 81 % 0 mm
21:18 15.6 °C 12.5 °C 1024.9 hPa WSW 1.1 km/h 4.8 km/h 82 % 0 mm
21:23 15.5 °C 12.4 °C 1024.9 hPa SW 0.8 km/h 5.6 km/h 82 % 0 mm
21:28 15.5 °C 12.4 °C 1024.9 hPa SW 0.6 km/h 1.9 km/h 82 % 0 mm
21:33 15.4 °C 12.4 °C 1024.9 hPa SW 1.8 km/h 3.7 km/h 82 % 0 mm
21:38 15.4 °C 12.6 °C 1025.3 hPa SW 0.6 km/h 3.7 km/h 83 % 0 mm
21:43 15.4 °C 12.6 °C 1025.3 hPa SSW 0.6 km/h 3.7 km/h 83 % 0 mm
21:48 15.4 °C 12.5 °C 1024.9 hPa SSW 1.1 km/h 1.9 km/h 83 % 0 mm
21:53 15.3 °C 12.4 °C 1025.3 hPa SSW 2.1 km/h 3.7 km/h 83 % 0 mm
21:58 15.3 °C 12.4 °C 1024.9 hPa SSW 1.1 km/h 3.2 km/h 83 % 0 mm
22:03 15.3 °C 12.4 °C 1024.9 hPa SW 0.6 km/h 3.7 km/h 83 % 0 mm
22:08 15.2 °C 12.3 °C 1024.9 hPa SW 0.3 km/h 5.6 km/h 83 % 0 mm
22:13 15.2 °C 12.3 °C 1024.9 hPa SW 1.1 km/h 5.6 km/h 83 % 0 mm
22:18 15.2 °C 12.3 °C 1024.9 hPa SSW 0.2 km/h 3.7 km/h 83 % 0 mm
22:23 15.2 °C 12.3 °C 1024.9 hPa South 0.8 km/h 1.9 km/h 83 % 0 mm
22:28 15.2 °C 12.5 °C 1024.9 hPa WSW 1.4 km/h 3.2 km/h 84 % 0 mm
22:33 15.2 °C 12.5 °C 1024.9 hPa WSW 0.2 km/h 5.6 km/h 84 % 0 mm
22:38 15.2 °C 12.5 °C 1024.9 hPa WSW 1.1 km/h 1.9 km/h 84 % 0 mm
22:44 15.2 °C 12.7 °C 1024.9 hPa WSW 4.3 km/h 8 km/h 85 % 0 mm
22:49 15.2 °C 12.7 °C 1024.9 hPa SW 1.4 km/h 5.6 km/h 85 % 0 mm
22:54 15.1 °C 12.6 °C 1024.9 hPa West 2.1 km/h 8 km/h 85 % 0 mm
22:59 15.1 °C 12.6 °C 1024.9 hPa WSW 1.4 km/h 5.6 km/h 85 % 0 mm
23:04 15.1 °C 12.4 °C 1024.9 hPa SW 1 km/h 5.6 km/h 84 % 0 mm
23:09 15.1 °C 12.4 °C 1024.9 hPa SW 1.3 km/h 3.7 km/h 84 % 0 mm
23:17 15.1 °C 12.4 °C 1024.9 hPa SW 1.9 km/h 6.4 km/h 84 % 0 mm
23:20 15.1 °C 12.4 °C 1024.9 hPa SW 2.1 km/h 13 km/h 84 % 0 mm
23:21 15.1 °C 12.4 °C 1024.9 hPa SW 2.4 km/h 5.6 km/h 84 % 0 mm
23:26 15.1 °C 12.2 °C 1024.9 hPa WSW 1.6 km/h 5.6 km/h 83 % 0 mm
23:27 15.1 °C 12.2 °C 1017.2 hPa WSW 1 km/h 3.7 km/h 83 % 0 mm
23:28 15.1 °C 12.2 °C 1024.9 hPa WSW 1.1 km/h 3.7 km/h 83 % 0 mm
23:31 15.1 °C 12.2 °C 1024.9 hPa WSW 1.8 km/h 9.3 km/h 83 % 0 mm
23:36 15.1 °C 12 °C 1024.9 hPa WSW 0.8 km/h 3.2 km/h 82 % 0 mm
23:39 15.1 °C 12 °C 1017.2 hPa WSW 1.6 km/h 3.7 km/h 82 % 0 mm
23:41 15.1 °C 12 °C 1024.9 hPa WSW 2.1 km/h 5.6 km/h 82 % 0 mm
23:46 15.1 °C 12.1 °C 1024.6 hPa SW 3.4 km/h 5.6 km/h 82 % 0 mm
23:51 15.1 °C 11.9 °C 1024.9 hPa SW 2.4 km/h 4.8 km/h 81 % 0 mm
23:56 15.1 °C 11.8 °C 1024.9 hPa West 3.2 km/h 5.6 km/h 81 % 0 mm
Crab Meadow Weather
Compliments of Weather Underground - 3 mb

Script developed by  Jim McMurry - jmcmurry@mwt.net Adapted for the template by  Wim van der Kuil - Leuven-Template.eu

Recycling: Americans use 2,500,000 plastic bottles every hour! Most of them are thrown away!